| time (UTC) | temp C | wind direction | speed KPH | gust KPH | rain 1hr cm | rain 24hr cm | rain mn cm | humidity % | barometer mb |
| 20260509230732 | 20 | 226 | 6.4 | 16.1 | 0.00 | 1.02 | 0.58 | 57 | 1003.0 |
| 20260509225730 | 20 | 220 | 6.4 | 20.9 | 0.00 | 1.02 | 0.58 | 56 | 1003.0 |
| 20260509225233 | 20 | 230 | 8.0 | 20.9 | 0.00 | 1.02 | 0.58 | 56 | 1003.1 |
| 20260509224732 | 20 | 228 | 8.0 | 19.3 | 0.00 | 1.02 | 0.58 | 56 | 1002.9 |
| 20260509224232 | 20 | 226 | 9.7 | 25.7 | 0.00 | 1.02 | 0.58 | 55 | 1002.7 |
| 20260509223731 | 20 | 226 | 9.7 | 25.7 | 0.00 | 1.02 | 0.58 | 55 | 1002.7 |
| 20260509223231 | 20 | 219 | 8.0 | 20.9 | 0.00 | 1.04 | 0.58 | 55 | 1002.7 |
| 20260509222730 | 20 | 221 | 8.0 | 20.9 | 0.00 | 1.04 | 0.58 | 56 | 1002.8 |
| 20260509222231 | 20 | 222 | 8.0 | 16.1 | 0.00 | 1.04 | 0.58 | 56 | 1002.8 |
| 20260509221729 | 20 | 216 | 8.0 | 19.3 | 0.00 | 1.04 | 0.58 | 55 | 1002.9 |
| 20260509220733 | 20 | 218 | 4.8 | 24.1 | 0.00 | 1.04 | 0.58 | 55 | 1002.6 |
| 20260509220232 | 20 | 214 | 4.8 | 14.5 | 0.00 | 1.04 | 0.58 | 57 | 1002.7 |
| 20260509214730 | 20 | 217 | 9.7 | 24.1 | 0.00 | 1.09 | 0.58 | 53 | 1002.8 |
| 20260509213233 | 20 | 208 | 8.0 | 16.1 | 0.00 | 1.09 | 0.58 | 54 | 1002.7 |
| 20260509212231 | 20 | 211 | 8.0 | 25.7 | 0.00 | 1.09 | 0.58 | 55 | 1002.9 |
| 20260509211731 | 20 | 218 | 9.7 | 20.9 | 0.00 | 1.09 | 0.58 | 55 | 1002.9 |
| 20260509210730 | 20 | 216 | 8.0 | 22.5 | 0.00 | 1.09 | 0.58 | 57 | 1003.1 |
| 20260509210233 | 20 | 232 | 9.7 | 24.1 | 0.00 | 1.09 | 0.58 | 57 | 1003.2 |
| 20260509205733 | 20 | 220 | 8.0 | 25.7 | 0.00 | 1.09 | 0.58 | 56 | 1003.3 |
| 20260509205232 | 20 | 205 | 8.0 | 25.7 | 0.00 | 1.09 | 0.58 | 57 | 1003.3 |
| 20260509204732 | 20 | 215 | 6.4 | 20.9 | 0.00 | 1.09 | 0.58 | 59 | 1003.4 |
| 20260509204231 | 20 | 217 | 8.0 | 20.9 | 0.00 | 1.09 | 0.58 | 58 | 1003.5 |
| 20260509203730 | 20 | 211 | 8.0 | 24.1 | 0.00 | 1.09 | 0.58 | 58 | 1003.6 |
| 20260509202730 | 20 | 207 | 8.0 | 20.9 | 0.00 | 1.12 | 0.58 | 59 | 1003.8 |
| 20260509202232 | 20 | 216 | 9.7 | 20.9 | 0.00 | 1.17 | 0.58 | 56 | 1003.7 |
| 20260509201732 | 21 | 235 | 6.4 | 17.7 | 0.00 | 1.17 | 0.58 | 60 | 1003.8 |
| 20260509200731 | 20 | 227 | 8.0 | 20.9 | 0.00 | 1.17 | 0.58 | 57 | 1004.0 |
| 20260509200231 | 20 | 223 | 6.4 | 20.9 | 0.00 | 1.17 | 0.58 | 56 | 1004.0 |
| 20260509195730 | 20 | 225 | 8.0 | 17.7 | 0.00 | 1.17 | 0.58 | 58 | 1004.0 |
| 20260509194730 | 20 | 230 | 8.0 | 20.9 | 0.00 | 1.17 | 0.58 | 57 | 1004.1 |
| 20260509194232 | 20 | 226 | 8.0 | 17.7 | 0.00 | 1.17 | 0.58 | 58 | 1004.2 |
| 20260509193732 | 20 | 229 | 9.7 | 19.3 | 0.00 | 1.17 | 0.58 | 59 | 1004.2 |
| 20260509193232 | 20 | 230 | 8.0 | 19.3 | 0.00 | 1.17 | 0.58 | 58 | 1004.3 |
| 20260509192731 | 20 | 228 | 6.4 | 17.7 | 0.00 | 1.17 | 0.58 | 58 | 1004.4 |
| 20260509192231 | 20 | 226 | 6.4 | 17.7 | 0.00 | 1.17 | 0.58 | 58 | 1004.6 |
| 20260509191230 | 20 | 229 | 9.7 | 27.4 | 0.00 | 1.17 | 0.58 | 56 | 1004.8 |
| 20260509190729 | 20 | 235 | 9.7 | 27.4 | 0.00 | 1.17 | 0.58 | 57 | 1004.8 |
| 20260509185733 | 20 | 235 | 6.4 | 17.7 | 0.00 | 1.17 | 0.58 | 59 | 1004.8 |
| 20260509185231 | 20 | 239 | 8.0 | 20.9 | 0.00 | 1.17 | 0.58 | 57 | 1004.8 |
| 20260509184731 | 20 | 237 | 8.0 | 20.9 | 0.00 | 1.17 | 0.58 | 58 | 1004.9 |
| 20260509184232 | 20 | 226 | 6.4 | 19.3 | 0.00 | 1.17 | 0.58 | 60 | 1004.8 |
| 20260509182729 | 20 | 228 | 8.0 | 19.3 | 0.00 | 1.17 | 0.58 | 58 | 1005.0 |
| 20260509182233 | 20 | 223 | 6.4 | 22.5 | 0.00 | 1.17 | 0.58 | 60 | 1004.9 |
| 20260509181732 | 20 | 219 | 8.0 | 22.5 | 0.00 | 1.17 | 0.58 | 57 | 1005.0 |
| 20260509181232 | 21 | 217 | 8.0 | 22.5 | 0.00 | 1.17 | 0.58 | 57 | 1005.0 |
| 20260509180731 | 21 | 217 | 4.8 | 11.3 | 0.00 | 1.17 | 0.58 | 60 | 1004.9 |
| 20260509180231 | 20 | 208 | 6.4 | 16.1 | 0.00 | 1.17 | 0.58 | 61 | 1004.9 |
| 20260509175230 | 20 | 216 | 8.0 | 17.7 | 0.00 | 1.19 | 0.58 | 59 | 1005.1 |
| 20260509174733 | 21 | 229 | 8.0 | 19.3 | 0.00 | 1.19 | 0.58 | 59 | 1005.1 |
| 20260509174232 | 20 | 225 | 8.0 | 19.3 | 0.00 | 1.19 | 0.58 | 59 | 1005.2 |
| 20260509172230 | 20 | 188 | 4.8 | 16.1 | 0.00 | 1.24 | 0.58 | 60 | 1004.9 |
| 20260509171233 | 20 | 230 | 6.4 | 14.5 | 0.00 | 1.24 | 0.58 | 66 | 1005.0 |
| 20260509170231 | 19 | 226 | 4.8 | 14.5 | 0.00 | 1.24 | 0.58 | 64 | 1004.8 |
| 20260509165730 | 19 | 233 | 4.8 | 12.9 | 0.00 | 1.24 | 0.58 | 65 | 1005.0 |
| 20260509165230 | 18 | 224 | 6.4 | 12.9 | 0.00 | 1.24 | 0.58 | 66 | 1005.1 |
| 20260509164729 | 18 | 224 | 6.4 | 16.1 | 0.00 | 1.24 | 0.58 | 68 | 1005.3 |
| 20260509164233 | 18 | 229 | 6.4 | 16.1 | 0.00 | 1.24 | 0.58 | 65 | 1005.4 |
| 20260509163732 | 18 | 244 | 4.8 | 12.9 | 0.00 | 1.24 | 0.58 | 67 | 1005.5 |
| 20260509162731 | 18 | 231 | 6.4 | 16.1 | 0.00 | 1.24 | 0.58 | 68 | 1005.6 |
| 20260509162231 | 18 | 228 | 4.8 | 12.9 | 0.00 | 1.24 | 0.58 | 70 | 1005.5 |
| 20260509161230 | 17 | 221 | 6.4 | 16.1 | 0.00 | 1.24 | 0.58 | 71 | 1005.4 |
| 20260509160729 | 17 | 217 | 6.4 | 12.9 | 0.00 | 1.24 | 0.58 | 77 | 1005.5 |
| 20260509155232 | 16 | 249 | 4.8 | 14.5 | 0.00 | 1.24 | 0.58 | 84 | 1005.5 |
| 20260509154231 | 15 | 251 | 4.8 | 14.5 | 0.00 | 1.24 | 0.58 | 90 | 1005.6 |
| 20260509153230 | 15 | 270 | 4.8 | 14.5 | 0.00 | 1.24 | 0.58 | 92 | 1005.4 |
| 20260509152729 | 14 | 249 | 4.8 | 14.5 | 0.00 | 1.24 | 0.58 | 93 | 1005.4 |
| 20260509152232 | 14 | 227 | 3.2 | 12.9 | 0.00 | 1.24 | 0.58 | 93 | 1005.4 |
| 20260509151732 | 13 | 234 | 1.6 | 8.0 | 0.00 | 1.24 | 0.58 | 94 | 1005.5 |
| 20260509151231 | 13 | 233 | 3.2 | 12.9 | 0.00 | 1.24 | 0.58 | 94 | 1005.4 |
| 20260509150731 | 13 | 240 | 3.2 | 12.9 | 0.00 | 1.24 | 0.58 | 93 | 1005.5 |
| 20260509150230 | 13 | 246 | 4.8 | 14.5 | 0.00 | 1.24 | 0.58 | 94 | 1005.4 |
| 20260509145730 | 13 | 241 | 4.8 | 14.5 | 0.00 | 1.24 | 0.58 | 94 | 1005.4 |
| 20260509145233 | 13 | 232 | 4.8 | 9.7 | 0.00 | 1.24 | 0.58 | 94 | 1005.3 |
| 20260509144732 | 13 | 231 | 3.2 | 9.7 | 0.00 | 1.24 | 0.58 | 94 | 1005.4 |
| 20260509144232 | 13 | 225 | 3.2 | 9.7 | 0.00 | 1.24 | 0.58 | 94 | 1005.4 |